Birmingham, AL

7:43 PM CDT on August 17, 2017 (GMT -0500)
Birmingham International

Weather History for KBHM - October, 2013

Change the Weather History Date:

Tuesday, October 22, 2013

  Actual Average Record
Temperature  
Mean Temperature 63 °F 62 °F  
Max Temperature 74 °F 74 °F 89 °F (1941)
Min Temperature 52 °F 51 °F 28 °F (1987)
Degree Days  
Heating Degree Days 2 5  
Month to date heating degree days 34 64  
Since 1 July heating degree days 34 73  
Cooling Degree Days 0 2  
Month to date cooling degree days 97 74  
Year to date cooling degree days 1940 2024  
Growing Degree Days 14 (Base 50)    
Moisture  
Dew Point 51 °F    
Average Humidity 64    
Maximum Humidity 93    
Minimum Humidity 35    
Precipitation  
Precipitation 0.00 in 0.11 in 3.73 in (1900)
Month to date precipitation 1.38 2.42  
Year to date precipitation 56.11 43.40  
Snow  
Snow 0.00 in 0.00 in - ()
Month to date snowfall 0.0 0.0  
Since 1 July snowfall 0.0 0.0  
Since 1 September snowfall 0.0 0.0  
Snow Depth 0.00 in    
Sea Level Pressure  
Sea Level Pressure 29.97 in    
Wind  
Wind Speed 4 mph (WNW)    
Max Wind Speed 15 mph    
Max Gust Speed 21 mph    
Visibility 10 miles    
Events      
T = Trace of Precipitation, MM = Missing Value Source: NWS Daily Summary

Daily Weather History Graph

Daily Weather History Graph

Search for Another Location

Airport or City:

Trip Planner

Search our weather history database for the weather conditions in past years. The results will help you decide how hot, cold, wet, or windy it might be!

Date:

Astronomy

Oct. 22, 2013 Rise Set
Actual Time 6:57 AM CDT 6:04 PM CDT
Civil Twilight 6:32 AM CDT 6:30 PM CDT
Nautical Twilight 6:03 AM CDT 6:59 PM CDT
Astronomical Twilight 5:34 AM CDT 7:27 PM CDT
Moon 8:52 PM CDT (10/22) 10:17 AM CDT (10/22)
Length of Visible Light 11h 57m
Length of Day
11h 07m
Waning Gibbous, 86% of the Moon is Illuminated
Oct 22
Waning Gibbous
Oct 26
Last Quarter
Nov 3
New
Nov 9
First Quarter
Nov 17
Full

Hourly Weather History & Observations

Time (CDT) Temp. Dew Point Humidity Pressure Visibility Wind Dir Wind Speed Gust Speed Precip Events Conditions
12:53 AM 57.9 °F 54.0 °F 87% 30.04 in 10.0 mi ENE 3.5 mph - 0.00 in   Overcast
1:53 AM 57.9 °F 53.1 °F 84% 30.01 in 10.0 mi Calm Calm - N/A   Overcast
2:53 AM 57.9 °F 52.0 °F 81% 30.03 in 10.0 mi Calm Calm - N/A   Overcast
3:53 AM 57.0 °F 53.1 °F 87% 30.02 in 9.0 mi Calm Calm - N/A   Mostly Cloudy
4:53 AM 57.0 °F 54.0 °F 89% 30.02 in 10.0 mi Calm Calm - N/A   Overcast
5:53 AM 57.0 °F 53.1 °F 87% 30.02 in 10.0 mi Calm Calm - N/A   Overcast
6:53 AM 57.0 °F 53.1 °F 87% 30.01 in 10.0 mi Calm Calm - N/A   Overcast
7:53 AM 57.0 °F 53.1 °F 87% 30.02 in 10.0 mi Calm Calm - N/A   Mostly Cloudy
8:53 AM 61.0 °F 54.0 °F 78% 30.02 in 10.0 mi Calm Calm - N/A   Scattered Clouds
9:53 AM 66.9 °F 48.0 °F 51% 30.01 in 10.0 mi NW 8.1 mph - N/A   Partly Cloudy
10:53 AM 68.0 °F 46.9 °F 47% 29.99 in 10.0 mi Variable 4.6 mph - N/A   Scattered Clouds
11:53 AM 70.0 °F 48.9 °F 47% 29.98 in 10.0 mi Variable 5.8 mph - N/A   Mostly Cloudy
12:53 PM 73.0 °F 46.9 °F 39% 29.95 in 10.0 mi Variable 6.9 mph - N/A   Scattered Clouds
1:53 PM 73.0 °F 44.1 °F 35% 29.92 in 10.0 mi West 12.7 mph - N/A   Clear
2:53 PM 73.0 °F 48.9 °F 42% 29.91 in 10.0 mi WNW 11.5 mph 17.3 mph N/A   Scattered Clouds
3:53 PM 72.0 °F 48.9 °F 44% 29.90 in 10.0 mi Variable 3.5 mph - N/A   Scattered Clouds
4:53 PM 70.0 °F 50.0 °F 49% 29.90 in 10.0 mi West 8.1 mph - N/A   Scattered Clouds
5:53 PM 68.0 °F 52.0 °F 56% 29.91 in 10.0 mi NW 5.8 mph - N/A   Mostly Cloudy
6:53 PM 64.9 °F 52.0 °F 63% 29.92 in 10.0 mi WNW 6.9 mph - N/A   Partly Cloudy
7:53 PM 63.0 °F 52.0 °F 67% 29.94 in 10.0 mi WNW 6.9 mph - N/A   Clear
8:53 PM 61.0 °F 52.0 °F 72% 29.94 in 10.0 mi WNW 3.5 mph - N/A   Clear
9:53 PM 55.9 °F 51.1 °F 84% 29.95 in 10.0 mi Calm Calm - N/A   Clear
10:53 PM 54.0 °F 51.1 °F 90% 29.95 in 10.0 mi Calm Calm - N/A   Clear
11:53 PM 55.9 °F 51.1 °F 84% 29.95 in 10.0 mi West 4.6 mph - N/A   Clear